Overview Statistics Trail Chart Weather Telemetry Raw packets
 

This is the latest recevied weather packets stored in our database for station/object N2VUZ-1. If no packets are shown the sender has not sent any weather packets the latest 10 day(s).

<< 25 26 27 28 29 30 31 >>
Time Temp. Humidity Pressure Rain* Wind** Luminosity Snow
1788112461 30° C 60% 1020.1 hPa 0 mm - - -
1788112161 29.44° C 62% 1020.2 hPa 0 mm - - -
1788111861 30° C 61% 1020.2 hPa 0 mm - - -
1788111561 30° C 59% 1020.5 hPa 0 mm - - -
1788111261 29.44° C 57% 1020.3 hPa 0 mm - - -
1788110961 29.44° C 59% 1020.5 hPa 0 mm - - -
1788110661 29.44° C 60% 1020.5 hPa 0 mm - - -
1788110361 28.89° C 58% 1020.6 hPa 0 mm - - -
1788110061 28.89° C 57% 1020.7 hPa 0 mm - - -
1788109761 28.89° C 59% 1020.5 hPa 0 mm - - -
1788109461 29.44° C 58% 1020.9 hPa 0 mm - - -
1788109161 28.89° C 56% 1020.8 hPa 0 mm - - -
1788108861 28.89° C 59% 1020.9 hPa 0 mm - - -
1788108561 28.89° C 62% 1021 hPa 0 mm - - -
1788108261 28.89° C 61% 1020.8 hPa 0 mm - - -
1788107968 28.89° C 61% 1021 hPa 0 mm - - -
1788107661 28.89° C 61% 1021 hPa 0 mm - - -
1788107361 28.89° C 61% 1021.1 hPa 0 mm - - -
1788107061 28.33° C 63% 1021.1 hPa 0 mm - - -
1788106761 28.33° C 61% 1020.8 hPa 0 mm - - -
1788106461 28.33° C 60% 1020.8 hPa 0 mm - - -
1788106161 27.78° C 62% 1021.1 hPa 0 mm - - -
1788105861 28.89° C 60% 1021.2 hPa 0 mm - - -
1788105561 27.78° C 63% 1021.3 hPa 0 mm - - -
1788105261 27.78° C 68% 1021.5 hPa 0 mm - - -

* Rain latest hour (hover to see other rain measurements)
** Current wind speed in m/s (hover to see current wind gust speed)